Temp
6 6 7 7 7 7 6 6 6 5 5 5 4 3 3 3 3 3 2 1 1 -6 -2 -1 -1 -4 -4 -7 -6 -6 -4 -5 -6 -6 -5 -5 -4 -4 -3 -6 -4 -2 -1 1 1 3 5 -1 -1 3 -1 -3 -3 -4
5 5 6 7 7 6 6 6 6 5 5 5 4 3 3 2 3 3 2 0 0 -1 -2 -0 0 0 0 -1 -6 -9 -7 -10 -5 -5 -8 -7 -2 -8 -7 -3 -7 -3 -3 -1 1 3 -2 -3 -3 -4 -4 -5 -4 -5
4 5 6 6 6 6 6 6 6 5 5 4 5 3 3 2 2 2 1 1 -0 -5 -4 -2 -3 -1 -0 -0 -0 -6 -8 -8 -6 -7 -7 -7 -5 -5 -5 -4 -6 -7 -13 -7 -4 -5 -4 -3 -5 -4 -4 -5 -5 -6
4 4 5 6 6 6 6 6 5 5 5 4 4 4 2 2 2 1 1 0 -0 -3 -6 -3 -1 -1 -1 -1 -1 -1 -3 -4 -4 -3 -5 -8 -7 -6 -6 -5 -6 -6 -8 -7 -7 -9 -8 -7 -7 -6 -6 -7 -7 -8
4 4 4 5 6 6 6 6 5 5 4 4 4 3 2 2 2 1 -0 -0 -0 -1 -3 -5 -3 -3 -2 -2 -2 -2 -2 -6 -7 -5 -4 -6 -7 -6 -11 -9 -9 -8 -6 -3 -1 -3 -6 -7 -7 -8 -9 -8 -8 -9
5 4 4 4 4 6 6 5 5 4 3 3 4 3 2 2 2 1 -3 -0 -0 -0 -6 -5 -5 -4 -3 -3 -3 -3 -3 -7 -8 -7 -7 -8 -10 -7 -8 -8 -6 -10 -13 -10 -4 -11 -12 -12 -11 -11 -11 -11 -11 -11
5 5 4 4 4 5 5 5 3 3 2 3 3 2 2 1 1 1 -1 -0 -1 -0 -6 -5 -6 -6 -4 -4 -5 -5 -4 -7 -6 -8 -6 -7 -8 -9 -13 -7 -5 -11 -10 -15 -16 -11 -10 -14 -11 -13 -11 -11 -10 -12
5 5 4 4 4 3 4 4 3 2 2 2 2 2 1 1 -0 -1 -1 -1 -1 -1 -5 -8 -7 -6 -5 -8 -7 -6 -7 -7 -5 -6 -5 -5 -8 -11 -8 -6 -10 -15 -16 -14 -15 -18 -14 -15 -16 -17 -14 -14 -18 -17
5 5 5 4 4 3 3 4 2 2 2 2 2 1 -0 -1 -2 -2 -3 -2 -2 -2 -6 -9 -7 -5 -7 -9 -7 -8 -8 -6 -5 -6 -4 -4 -7 -7 -3 -7 -10 -11 -9 -9 -18 -18 -18 -15 -15 -18 -18 -19 -17 -19
5 5 5 4 4 3 3 3 2 2 2 2 1 -0 -2 -2 -2 -3 -4 -6 -6 -7 -9 -6 -7 -6 -7 -8 -8 -7 -7 -6 -7 -4 -5 -7 -5 -3 -6 -8 -10 -10 -12 -13 -13 -14 -16 -15 -14 -17 -16 -16 -15 -16
5 5 5 4 4 3 3 2 2 1 1 1 -1 -1 -4 -4 -4 -4 -6 -7 -6 -5 -6 -7 -7 -6 -8 -7 -5 -5 -6 -7 -8 -5 -5 -6 -5 -6 -11 -13 -14 -12 -12 -12 -15 -15 -12 -14 -13 -16 -19 -16 -14 -14
5 5 5 4 4 3 2 2 2 1 1 1 1 -2 -4 -4 -4 -4 -5 -5 -5 -3 -6 -7 -7 -8 -10 -8 -7 -8 -7 -9 -7 -9 -9 -7 -6 -8 -12 -13 -16 -17 -14 -16 -13 -15 -14 -13 -12 -14 -14 -14 -14 -12
5 5 5 4 4 3 2 2 2 1 1 0 -0 -2 -2 -3 -3 -3 -2 -3 -4 -5 -8 -10 -8 -9 -11 -9 -11 -8 -8 -7 -7 -10 -7 -6 -9 -9 -11 -18 -18 -18 -15 -16 -17 -14 -13 -14 -13 -13 -14 -13 -12 -13
5 5 5 4 3 2 2 2 1 0 2 0 1 0 -1 -2 -3 -2 -1 0 -3 -4 -6 -7 -8 -8 -9 -7 -8 -5 -7 -8 -10 -10 -6 -9 -11 -11 -14 -19 -18 -17 -16 -16 -16 -15 -15 -14 -14 -13 -12 -11 -13 -13
4 5 5 4 3 2 1 1 1 1 0 1 1 1 -1 -1 -4 -3 -4 -4 -5 -5 -5 -6 -6 -6 -7 -6 -6 -7 -8 -9 -8 -5 -7 -10 -11 -14 -15 -18 -18 -18 -19 -18 -15 -15 -14 -14 -14 -13 -12 -13 -13 -13
4 5 5 4 2 1 1 1 1 -0 -0 1 1 0 -2 -1 -3 -4 -4 -4 -6 -5 -5 -4 -5 -5 -5 -6 -8 -7 -6 -6 -4 -8 -9 -12 -11 -11 -14 -15 -15 -15 -15 -15 -14 -14 -13 -14 -14 -13 -13 -13 -13 -13
3 3 4 3 1 1 1 1 -0 -1 0 0 0 -1 -1 -1 0 -0 -3 -4 -5 -3 -3 -4 -3 -2 -6 -6 -8 -8 -7 -6 -7 -8 -8 -8 -9 -9 -12 -13 -12 -13 -13 -13 -14 -13 -13 -13 -13 -14 -15 -13 -13 -12
4 3 2 2 1 1 1 -0 0 0 1 -0 -0 -1 -2 -2 -1 -3 -5 -6 -5 -3 -3 -3 -5 -4 -4 -4 -4 -5 -6 -7 -7 -7 -7 -8 -9 -10 -10 -11 -10 -11 -12 -13 -13 -13 -13 -14 -15 -15 -13 -12 -13 -13
2 2 2 1 1 -0 -0 -1 -0 1 -0 -3 -5 -5 -4 -5 -6 -6 -6 -5 -5 -4 -5 -4 -3 -3 -5 -8 -8 -8 -9 -9 -11 -10 -10 -10 -10 -11 -10 -10 -11 -11 -12 -12 -13 -14 -14 -14 -14 -13 -13 -13 -13 -12
1 2 2 0 1 -0 0 -2 -2 -0 -1 -4 -5 -6 -7 -7 -7 -7 -7 -6 -5 -5 -5 -5 -6 -9 -10 -11 -11 -12 -11 -13 -14 -13 -12 -13 -11 -11 -11 -11 -12 -12 -12 -13 -13 -12 -14 -14 -14 -14 -13 -13 -13 -13
2 1 -1 -0 -2 -3 -5 -4 -5 -5 -5 -6 -7 -7 -8 -8 -8 -8 -8 -7 -6 -9 -9 -11 -12 -13 -14 -14 -14 -14 -15 -15 -17 -17 -15 -14 -13 -12 -12 -12 -12 -12 -13 -13 -13 -13 -12 -14 -13 -13 -13 -12 -13 -12
-1 -0 -1 -1 -5 -7 -7 -9 -6 -7 -7 -8 -7 -7 -8 -9 -9 -11 -11 -10 -12 -13 -13 -13 -14 -15 -15 -16 -15 -15 -15 -15 -15 -15 -13 -12 -14 -15 -14 -13 -13 -13 -13 -13 -13 -13 -13 -13 -13 -13 -13 -13 -13 -13
-0 -0 -3 -4 -5 -6 -8 -8 -6 -7 -6 -8 -8 -8 -10 -11 -12 -12 -11 -12 -13 -14 -15 -16 -16 -16 -16 -15 -15 -15 -16 -17 -17 -16 -15 -15 -14 -14 -14 -13 -13 -13 -13 -13 -13 -13 -13 -13 -13 -13 -13 -13 -14 -14
-2 -7 -6 -6 -6 -8 -8 -8 -7 -7 -7 -7 -7 -9 -11 -12 -13 -11 -12 -12 -13 -15 -16 -17 -17 -17 -16 -15 -17 -16 -17 -17 -17 -16 -15 -16 -15 -15 -15 -15 -15 -14 -14 -14 -14 -14 -14 -13 -13 -13 -14 -14 -14 -14
-5 -8 -7 -7 -7 -6 -6 -7 -7 -7 -8 -9 -10 -11 -13 -14 -12 -13 -14 -15 -15 -15 -16 -17 -17 -18 -19 -18 -17 -17 -17 -18 -19 -19 -16 -16 -16 -15 -15 -15 -15 -15 -15 -15 -15 -15 -15 -14 -14 -14 -14 -14 -15 -15
-8 -10 -8 -8 -8 -6 -7 -7 -8 -9 -10 -12 -13 -14 -16 -15 -14 -16 -15 -17 -17 -18 -18 -18 -18 -19 -20 -18 -20 -19 -18 -18 -19 -18 -17 -17 -18 -18 -17 -16 -16 -15 -16 -16 -16 -16 -15 -15 -15 -15 -15 -15 -14 -15
-10 -10 -10 -10 -9 -9 -9 -10 -11 -12 -14 -14 -13 -14 -15 -16 -16 -15 -17 -18 -20 -18 -18 -18 -18 -18 -20 -19 -18 -18 -18 -18 -18 -18 -17 -17 -18 -18 -18 -18 -18 -17 -17 -16 -16 -16 -16 -16 -16 -16 -16 -16 -16 -15
-13 -12 -11 -14 -14 -15 -14 -15 -15 -15 -15 -15 -14 -15 -16 -16 -16 -19 -19 -19 -19 -18 -18 -18 -18 -19 -19 -18 -18 -18 -18 -18 -17 -16 -17 -17 -18 -18 -18 -18 -18 -18 -18 -17 -17 -16 -17 -17 -16 -16 -17 -17 -16 -16
-14 -15 -14 -17 -18 -18 -18 -17 -17 -17 -17 -18 -18 -18 -19 -20 -21 -20 -19 -19 -19 -19 -18 -19 -18 -18 -18 -18 -18 -18 -19 -19 -19 -23 -23 -21 -20 -17 -18 -18 -18 -18 -18 -17 -17 -16 -16 -16 -16 -16 -16 -17 -17 -17
-17 -19 -17 -20 -18 -19 -20 -22 -22 -22 -21 -20 -19 -19 -21 -21 -19 -19 -19 -19 -19 -19 -20 -20 -20 -20 -21 -21 -21 -19 -19 -20 -20 -20 -25 -26 -22 -19 -18 -18 -17 -18 -18 -18 -18 -17 -17 -16 -15 -15 -17 -17 -17 -17
-23 -22 -22 -23 -23 -23 -23 -24 -22 -20 -25 -26 -27 -23 -22 -25 -19 -18 -19 -18 -19 -19 -19 -19 -19 -20 -20 -21 -22 -23 -23 -20 -20 -21 -21 -21 -20 -19 -18 -17 -17 -17 -17 -18 -18 -18 -18 -17 -16 -16 -16 -17 -17 -17
-23 -26 -23 -22 -22 -25 -27 -27 -28 -27 -27 -24 -25 -28 -24 -23 -22 -22 -18 -19 -19 -19 -18 -20 -20 -20 -20 -20 -21 -21 -22 -22 -21 -21 -20 -20 -19 -18 -18 -17 -17 -17 -17 -17 -18 -18 -18 -18 -17 -17 -17 -17 -17 -17
-29 -29 -29 -26 -24 -24 -26 -26 -26 -25 -26 -26 -25 -27 -27 -23 -21 -21 -19 -18 -18 -17 -19 -20 -20 -20 -20 -21 -21 -21 -21 -21 -21 -21 -19 -19 -18 -17 -17 -16 -17 -17 -16 -17 -17 -18 -18 -18 -18 -18 -17 -17 -17 -17
Height
838 839 841 841 842 842 842 841 841 839 837 836 835 833 832 828 826 824 824 822 822 829 825 823 824 831 832 839 845 838 837 837 840 849 853 853 854 850 850 854 843 835 830 820 818 810 793 812 817 800 815 823 825 828
829 831 833 834 836 837 836 836 837 836 835 834 832 832 830 828 826 824 822 822 821 821 823 822 821 822 822 823 831 838 837 846 834 843 856 854 840 865 862 848 850 845 831 825 808 793 806 811 813 815 816 822 827 830
820 822 824 827 829 829 830 831 831 832 832 831 829 829 827 825 823 823 821 820 822 823 823 822 821 820 820 821 823 834 836 831 833 830 841 846 848 844 852 842 842 835 847 839 824 816 811 807 811 811 815 820 825 828
807 810 813 815 819 821 822 824 825 826 827 827 826 826 826 823 821 820 821 818 820 823 836 824 820 820 820 820 821 822 824 826 828 829 835 847 848 836 842 837 839 828 837 836 832 824 819 810 808 809 814 817 821 824
798 800 802 806 808 812 814 816 818 819 822 822 823 823 824 821 820 817 819 820 818 820 829 825 821 821 821 821 822 822 824 826 831 835 833 842 838 837 849 845 840 820 813 810 801 795 802 803 802 809 814 816 818 822
786 791 794 798 801 806 809 810 812 814 817 818 819 819 820 821 817 818 818 819 820 818 824 830 820 819 821 823 824 824 825 826 829 834 836 835 834 836 844 843 797 800 798 792 788 795 804 803 804 808 812 815 819 821
768 773 780 786 791 795 799 805 808 809 811 813 815 816 816 816 816 818 820 817 818 819 823 827 824 817 818 821 824 825 826 825 827 832 831 832 834 837 852 829 785 794 793 800 799 796 806 808 806 807 810 815 817 819
754 757 763 770 777 783 789 794 800 804 807 810 813 811 812 814 814 817 817 817 818 818 821 837 827 822 817 824 826 823 827 828 825 828 826 826 835 842 829 785 790 797 800 799 800 802 797 798 806 810 810 813 817 820
739 743 749 755 762 771 777 782 790 798 802 806 808 809 808 810 812 813 815 816 820 823 824 831 826 818 817 821 820 824 824 831 824 826 823 824 829 822 776 780 785 786 784 784 800 801 802 802 804 810 812 814 815 816
723 729 734 740 747 756 765 772 779 787 794 800 805 806 806 809 810 814 814 816 819 820 821 818 812 814 814 820 823 823 825 826 831 818 821 825 806 770 773 772 771 773 779 785 796 804 804 805 803 804 806 808 810 812
709 713 720 727 735 743 755 760 771 781 787 793 795 801 806 807 810 811 815 820 821 818 809 806 806 809 810 813 809 812 820 826 837 820 821 820 803 774 772 772 768 766 769 774 777 779 783 785 791 798 802 803 807 808
694 701 706 713 721 732 744 755 759 770 776 778 787 796 802 806 809 810 811 811 812 797 800 804 805 805 810 807 808 818 819 829 827 826 832 818 782 771 773 770 767 766 767 772 775 776 780 781 783 790 794 797 800 802
680 686 693 701 708 718 732 745 757 762 768 777 785 789 791 797 799 794 786 788 793 785 795 801 805 806 812 809 817 814 822 821 819 833 809 785 777 771 769 772 770 768 768 771 775 776 778 781 784 787 791 793 795 798
669 673 679 688 697 708 721 733 747 756 761 769 774 777 774 777 771 761 752 749 760 771 783 790 800 804 806 804 809 805 812 820 831 833 791 784 778 772 769 770 771 770 770 773 774 777 778 779 782 784 785 789 792 794
655 659 667 675 685 698 712 723 734 749 752 756 758 751 751 746 751 750 753 752 760 767 776 788 794 796 801 802 803 808 817 819 805 780 775 775 773 772 769 769 769 770 772 773 772 776 778 778 779 780 782 787 789 790
644 652 654 663 676 690 705 721 731 738 743 745 741 739 742 743 747 752 753 753 758 762 770 778 787 789 790 795 809 800 798 786 764 773 770 771 769 767 766 764 764 764 765 768 769 771 775 777 777 778 781 784 785 786
637 634 639 654 670 685 700 711 720 729 733 731 729 729 730 730 728 732 745 750 755 758 762 770 772 768 789 791 797 789 782 767 766 767 766 767 766 763 761 760 761 762 763 765 766 768 772 775 776 778 779 779 781 782
623 621 637 652 669 686 698 706 714 718 718 720 722 725 728 727 728 735 740 747 751 752 753 755 764 768 766 766 763 758 763 764 764 765 765 765 763 762 760 759 759 759 759 762 764 765 770 772 773 774 775 777 778 779
605 617 635 650 661 678 693 702 705 706 712 718 722 725 726 730 734 734 735 740 742 743 747 752 753 754 758 767 768 769 770 771 770 767 765 763 761 759 757 757 756 756 756 758 761 763 765 767 769 770 772 773 774 775
604 617 634 645 662 675 686 696 699 701 709 719 722 729 733 736 740 740 740 741 743 745 748 751 757 771 774 776 776 777 775 775 773 768 764 762 760 759 758 757 755 755 755 756 759 760 763 765 766 767 768 770 771 772
616 627 638 651 666 676 689 697 705 711 716 722 729 731 740 744 746 746 746 745 747 758 761 770 776 778 780 779 778 777 776 774 774 773 769 763 759 756 756 755 754 753 753 755 756 757 758 760 761 762 764 766 767 769
622 634 647 660 672 686 697 705 707 715 721 728 731 735 743 749 752 755 754 755 768 776 777 779 779 780 780 779 778 776 774 772 770 768 765 761 758 757 755 753 752 752 751 752 753 754 756 757 758 759 761 763 765 766
630 642 656 666 680 691 710 707 710 717 720 732 735 740 751 758 761 760 762 768 777 782 782 782 782 780 779 777 776 774 774 772 770 768 765 762 760 759 755 753 752 751 750 751 752 753 754 756 756 757 760 762 763 765
639 658 673 681 688 706 709 712 715 720 727 730 735 748 758 761 763 761 768 775 781 784 784 784 783 780 778 777 777 776 774 772 770 767 765 762 761 759 756 753 752 751 751 751 751 752 753 754 755 756 757 760 761 763
657 689 687 695 700 702 708 715 719 722 732 741 746 755 761 764 763 771 777 784 784 784 785 785 783 783 783 780 778 776 776 774 771 769 765 764 763 759 756 753 752 751 751 751 751 751 752 753 753 754 756 758 759 760
689 705 701 704 708 704 714 718 726 733 740 752 762 766 769 770 775 788 783 786 786 786 786 784 783 782 781 779 779 777 775 773 771 768 765 764 763 761 758 755 754 753 752 752 752 752 752 752 753 754 755 756 757 758
707 717 716 719 717 718 725 733 739 745 757 762 763 766 769 782 785 784 785 785 786 785 785 784 782 781 781 779 778 775 773 771 769 767 764 763 761 759 758 757 755 754 753 752 751 751 751 752 752 753 754 754 755 756
726 727 726 736 736 740 745 753 759 766 768 767 764 774 780 782 784 785 785 785 785 784 783 781 781 781 779 777 775 772 770 768 765 763 761 760 759 758 757 756 755 754 752 750 750 749 749 750 750 751 751 752 753 754
739 740 739 751 755 760 769 769 771 772 773 774 776 783 786 785 785 784 784 784 783 782 781 780 779 778 777 775 773 771 769 767 765 764 764 762 758 757 756 754 752 750 748 747 747 747 747 747 747 747 749 750 751 752
751 751 753 765 767 777 781 781 781 778 775 776 776 780 783 785 784 784 783 783 782 781 781 781 780 778 776 774 771 768 766 764 763 762 763 762 758 755 752 750 749 747 746 744 743 743 743 743 743 744 746 747 748 750
762 760 770 779 787 787 784 782 779 778 779 781 780 783 786 786 783 783 782 782 781 781 781 780 778 776 774 772 770 766 763 761 760 760 759 756 754 752 749 747 745 744 743 741 740 740 740 740 740 740 741 743 745 747
772 785 782 787 791 788 784 789 792 791 791 788 791 790 788 788 789 781 780 780 781 780 779 777 774 772 771 768 765 762 761 758 756 755 753 752 749 748 745 742 741 739 738 737 737 737 737 738 738 738 739 740 742 743
789 790 793 793 793 794 794 794 798 797 796 797 794 795 794 790 787 778 778 778 778 777 775 773 771 768 766 763 760 758 756 753 752 750 749 747 744 742 739 737 735 735 733 732 731 731 732 733 734 735 736 737 738 739
Wind_Speed
31 29 26 23 20 17 14 12 9 8 8 8 8 9 12 14 16 11 4 9 2 2 3 4 4 3 2 1 3 3 3 3 3 4 3 2 2 2 2 3 3 3 3 3 2 0 6 4 3 5 3 3 6 5
35 33 30 28 25 21 18 15 12 11 9 7 6 8 8 11 14 11 2 5 2 3 3 2 4 4 4 5 4 2 5 3 3 3 1 2 1 1 3 3 3 3 5 3 6 3 2 3 3 3 4 5 4 4
38 36 35 32 29 26 22 19 16 14 11 9 8 7 7 8 11 10 4 3 0 2 3 1 3 5 6 5 4 3 2 4 1 3 3 3 2 3 3 5 2 4 3 3 4 3 5 6 4 6 5 5 7 5
42 40 39 37 34 30 26 23 19 16 14 12 9 7 7 9 9 8 5 1 2 4 2 4 2 2 5 6 4 2 6 4 4 0 1 2 2 2 3 2 3 3 4 4 6 6 5 6 5 9 7 7 7 6
46 44 42 40 37 35 30 26 22 18 16 14 11 8 8 8 10 5 2 3 3 3 3 3 3 3 4 5 6 6 8 3 2 1 1 3 1 2 1 1 4 6 7 5 5 5 5 5 9 8 7 7 6 5
48 46 43 41 39 37 33 28 24 20 17 15 12 8 8 10 6 3 2 6 4 1 3 2 0 1 2 4 6 7 7 1 2 3 3 1 0 3 2 3 7 6 4 6 4 5 3 2 6 5 7 6 6 6
53 50 46 44 41 39 35 30 25 21 17 15 11 8 7 6 6 1 3 2 8 1 3 3 3 1 2 3 1 1 1 1 3 1 1 2 1 3 2 3 5 4 4 2 2 7 4 3 5 8 8 8 5 3
56 53 51 47 45 40 37 32 26 21 18 12 9 7 3 8 4 3 5 6 5 4 4 1 3 1 5 1 1 1 1 2 1 2 0 2 1 1 4 11 5 1 3 2 4 3 2 9 8 5 8 9 3 1
58 56 55 51 47 43 39 34 27 22 18 12 11 7 7 2 3 3 6 5 6 1 2 2 4 4 2 1 2 2 2 2 1 2 2 3 2 5 10 7 5 9 8 8 5 5 4 4 8 5 4 3 4 3
58 58 57 54 49 45 41 35 29 26 20 18 10 4 1 3 7 8 3 2 3 2 2 3 1 3 3 1 0 3 0 2 2 2 2 2 4 12 8 8 5 8 8 13 6 1 2 3 7 6 8 8 10 7
59 58 57 55 52 46 43 38 33 28 26 10 7 2 9 10 4 1 1 2 1 3 3 3 4 3 2 3 3 2 2 1 1 2 3 2 4 4 3 5 4 7 12 11 3 3 11 6 10 8 6 14 13 9
57 57 58 56 54 49 44 40 41 35 16 20 15 9 7 3 1 2 3 2 4 4 2 4 3 2 1 0 3 1 3 2 4 1 2 3 4 5 5 4 3 3 10 8 8 9 13 11 18 17 14 15 14 8
55 56 57 56 54 52 46 43 43 29 30 18 4 4 4 3 4 8 9 4 3 4 5 3 1 2 1 1 2 3 3 4 2 1 4 5 3 5 6 3 2 0 10 11 8 12 14 15 16 16 14 11 8 9
48 55 56 56 56 51 48 48 43 39 9 3 6 7 6 5 6 6 5 5 3 4 6 3 3 2 2 2 2 4 2 2 1 2 7 3 4 5 6 2 3 5 7 7 9 15 15 16 15 13 11 9 10 10
41 53 54 58 57 54 51 52 47 33 8 4 5 7 9 4 1 1 2 5 3 7 6 4 2 1 1 3 1 4 2 4 6 5 3 3 4 3 4 2 4 4 5 5 13 13 15 16 15 14 12 14 13 11
36 44 45 57 57 54 52 51 37 15 7 4 6 3 0 3 3 2 2 2 3 6 3 2 3 3 3 3 3 7 6 7 3 3 2 1 4 4 3 3 5 11 13 10 14 14 15 16 16 12 12 15 14 12
32 18 42 58 56 54 54 23 8 5 5 5 4 2 4 1 4 4 4 5 10 5 4 3 5 6 4 2 4 5 5 3 2 1 1 1 3 6 5 4 6 10 11 13 16 16 16 14 12 10 10 14 14 12
29 30 54 58 54 43 31 8 5 6 8 3 4 4 3 0 4 2 3 8 6 4 5 5 4 5 5 6 4 2 1 2 1 3 4 5 6 9 9 6 8 11 12 13 16 16 15 14 12 12 15 11 10 10
32 51 60 60 43 13 4 5 4 4 3 3 2 2 3 3 2 2 4 7 3 3 5 3 3 3 2 2 3 3 3 2 2 4 5 10 14 10 10 7 7 9 12 13 14 13 14 18 15 14 13 12 12 9
48 58 60 48 42 5 4 2 3 3 3 2 3 3 3 3 2 2 4 2 2 2 2 2 2 2 2 2 2 2 3 4 4 5 5 3 13 13 10 9 9 9 10 10 12 12 12 12 15 13 13 13 11 11
45 49 47 38 6 9 4 2 3 2 2 3 2 2 3 2 2 1 2 1 3 3 2 3 2 1 5 6 6 7 7 5 2 2 4 5 13 16 15 12 11 10 8 8 8 9 13 12 13 14 14 12 12 8
32 38 15 8 5 4 4 6 3 2 3 2 2 3 3 2 1 2 2 3 3 2 2 2 2 3 4 3 6 7 8 11 11 11 12 13 3 2 5 8 8 5 7 7 8 8 10 11 11 11 13 12 9 8
27 15 7 5 5 5 2 2 3 3 3 2 1 3 2 2 1 2 3 2 3 3 4 3 6 9 5 6 9 10 12 13 8 9 10 12 10 8 8 6 6 5 3 6 7 8 7 7 9 12 10 8 8 7
12 6 4 3 4 4 1 3 2 3 3 2 2 3 2 1 1 2 3 2 2 2 3 6 7 4 5 4 2 6 10 14 11 11 10 11 6 6 7 6 4 2 2 3 4 4 5 7 6 7 11 10 8 8
7 7 4 6 3 3 3 3 3 3 3 2 3 2 1 0 2 3 2 1 1 1 3 5 4 2 1 2 6 10 11 13 9 6 9 9 10 9 7 6 5 4 3 2 2 4 5 6 7 8 11 10 9 9
8 6 5 3 3 3 2 3 3 3 3 3 3 1 1 2 4 1 1 1 1 1 3 4 4 3 2 5 4 7 13 16 14 8 3 11 8 7 6 4 3 5 6 4 4 5 6 5 6 7 8 9 9 9
5 6 3 4 2 3 4 4 4 4 4 3 1 1 2 3 1 2 1 1 1 4 8 9 9 8 6 13 14 13 14 10 8 12 13 9 7 5 5 4 6 6 10 9 7 8 7 8 9 9 9 9 9 8
4 6 5 5 5 4 4 3 4 3 1 2 0 3 3 4 3 1 1 2 6 4 3 2 2 5 7 9 9 10 11 12 12 8 5 4 4 2 6 9 9 9 12 10 8 7 9 9 9 10 10 10 9 8
4 5 3 5 4 5 5 3 2 2 3 1 3 1 2 1 1 1 1 5 3 2 6 10 7 8 6 7 5 9 8 8 7 3 3 3 4 5 11 15 12 11 11 11 9 8 10 10 11 12 11 10 9 9
4 4 4 4 5 4 2 1 0 2 1 1 1 2 2 1 5 4 5 3 5 5 5 6 6 8 9 12 15 15 9 4 2 4 1 4 9 19 19 18 17 14 12 12 11 10 10 10 9 13 12 11 11 11
2 3 4 4 3 2 2 4 4 1 3 3 2 3 2 2 2 5 2 1 2 2 5 9 10 8 10 14 13 11 12 6 6 13 17 17 17 18 20 21 20 18 14 12 10 10 8 8 7 18 18 15 14 12
4 4 3 3 1 3 4 3 2 3 4 3 3 2 3 3 2 2 6 7 1 8 13 12 13 12 13 18 18 15 16 20 21 18 15 16 19 21 23 22 25 21 17 14 12 13 12 11 8 12 18 16 15 15
3 3 3 3 3 4 3 3 4 4 3 2 2 0 1 2 4 3 9 10 6 14 16 15 12 13 17 21 18 19 14 13 14 15 18 20 21 22 23 21 18 20 19 18 16 15 16 16 16 16 16 17 17 16
Wind_Direction
248 249 250 252 255 260 267 275 282 293 309 332 347 2 351 15 12 13 48 25 50 144 271 186 174 140 113 97 136 255 46 321 25 69 117 210 146 257 22 235 190 198 143 207 109 241 275 137 76 195 120 89 132 133
246 247 248 249 250 253 257 262 266 270 280 296 322 334 349 351 5 5 32 352 345 151 203 235 228 240 206 192 137 8 168 185 190 88 37 109 210 36 161 275 343 293 188 211 195 217 171 183 169 140 137 136 159 154
245 245 248 248 247 248 250 254 256 257 262 272 286 308 322 329 352 354 340 354 64 56 335 8 238 224 225 210 204 121 291 178 289 185 162 177 196 143 198 240 230 238 162 210 35 257 211 187 143 148 144 135 144 136
245 242 243 245 246 244 244 246 248 248 250 256 265 282 303 316 336 339 311 283 130 101 101 281 132 152 199 184 180 139 138 114 119 78 110 140 170 179 220 238 202 208 125 175 272 282 321 261 209 163 143 137 136 140
247 245 242 243 243 244 241 239 241 240 241 245 253 263 286 296 315 321 334 165 122 133 209 261 307 219 191 190 180 162 150 113 128 122 168 229 194 101 346 33 246 186 184 171 221 206 168 234 172 154 151 163 149 153
243 244 244 242 240 244 244 238 235 234 234 239 242 246 270 294 278 322 18 198 201 41 88 328 158 70 173 193 178 167 176 160 115 150 220 233 200 114 168 236 253 210 209 177 217 140 108 55 102 118 147 152 164 173
238 238 239 240 236 237 239 238 231 227 224 231 232 239 272 276 215 210 208 171 176 194 83 321 312 293 128 117 75 94 190 234 134 216 225 161 240 127 151 241 257 238 214 216 202 116 38 264 196 172 149 155 158 157
236 235 234 235 234 228 231 230 221 215 216 218 216 229 252 193 220 245 202 183 191 119 80 180 267 340 173 166 131 194 122 21 239 209 199 179 112 85 256 239 246 328 103 90 190 347 171 116 110 117 132 144 112 222
236 233 229 227 226 223 219 217 206 205 203 191 202 173 148 195 185 181 158 166 199 249 203 152 184 219 158 174 136 41 110 177 245 203 227 142 191 233 229 220 208 184 179 182 124 78 59 116 150 148 136 134 165 217
236 231 227 223 221 217 208 204 194 190 181 184 169 169 106 175 134 143 79 44 19 326 31 228 128 200 134 173 250 106 86 201 196 229 104 186 257 263 254 227 203 181 166 139 112 200 180 217 194 188 200 195 197 196
236 231 225 219 215 210 203 193 184 172 168 161 160 138 129 140 164 102 118 139 168 262 205 232 195 153 233 132 164 181 164 170 133 230 169 242 265 252 293 286 267 183 168 181 158 184 181 173 182 181 196 199 203 213
235 230 224 215 208 203 194 189 175 166 178 171 142 131 138 163 94 158 205 139 202 240 194 161 202 162 207 317 109 207 129 78 230 129 92 252 254 267 301 283 297 182 157 155 169 150 161 166 168 171 177 185 197 213
231 229 222 212 201 194 188 186 179 166 147 121 142 135 158 165 199 194 189 194 222 189 177 162 141 141 37 26 58 112 114 200 92 123 231 234 274 285 285 261 296 298 151 140 144 154 149 144 156 167 177 182 180 220
239 227 218 204 192 187 183 180 173 161 131 154 171 194 199 190 233 196 187 164 161 124 138 114 105 164 182 102 144 126 141 95 101 252 232 248 251 288 322 265 137 195 186 169 170 169 169 169 179 185 181 187 206 222
242 223 213 196 189 182 180 177 168 170 146 182 190 215 207 208 193 161 110 110 130 134 124 102 87 165 146 113 178 102 72 248 216 233 224 236 268 283 297 248 210 182 186 188 181 182 186 185 187 192 197 213 219 223
239 223 200 189 183 177 175 172 166 170 169 212 215 205 10 119 167 170 155 122 141 132 101 98 150 155 196 143 134 214 159 224 235 216 233 279 302 305 283 245 220 202 193 194 197 198 196 194 194 196 208 213 215 223
233 211 190 177 173 171 170 160 139 164 188 211 218 182 185 92 175 157 148 162 155 134 165 149 175 203 108 179 235 193 211 227 191 281 238 223 300 323 313 285 237 208 200 202 200 202 210 210 197 195 210 217 222 226
215 180 169 166 163 161 166 157 154 183 204 185 173 194 182 45 115 112 115 150 148 184 154 190 121 189 200 199 220 210 138 358 44 46 344 329 311 300 295 274 258 219 198 200 205 203 201 196 195 217 225 219 214 223
165 159 164 161 155 136 128 169 179 187 165 145 98 36 86 101 35 68 128 156 83 101 121 144 184 202 211 51 13 18 9 356 305 312 300 296 308 305 302 281 246 208 195 189 191 193 201 210 216 222 222 212 216 220
159 158 159 151 152 113 127 110 161 120 142 111 70 81 54 71 53 63 88 81 102 111 116 163 56 47 25 7 357 304 320 343 325 312 304 303 336 318 292 265 244 232 208 204 206 208 207 215 223 221 215 209 218 233
133 144 139 142 102 65 67 68 66 53 92 91 96 62 74 40 47 56 71 345 68 32 72 48 56 8 333 308 312 316 300 307 254 217 284 298 302 298 292 281 261 228 196 192 198 214 207 208 217 216 214 219 220 221
121 130 112 108 81 72 81 14 91 88 71 89 73 79 83 69 54 33 312 60 56 50 31 16 338 331 329 317 324 328 338 331 318 304 308 321 314 322 301 280 230 217 208 206 204 215 225 224 220 211 209 210 217 227
114 109 65 68 86 55 48 336 86 41 96 115 117 99 69 70 17 291 75 65 86 54 39 10 330 325 280 340 9 13 6 353 327 320 324 326 320 333 331 307 260 226 216 227 236 236 234 226 221 203 201 207 211 221
89 55 53 63 65 93 84 57 66 88 103 100 92 113 78 93 313 51 77 69 95 88 29 359 360 344 352 354 5 340 351 350 330 330 348 344 318 336 354 359 1 357 303 281 217 218 220 219 213 207 197 199 207 218
73 9 31 61 50 100 91 86 72 81 91 65 109 96 89 339 78 64 82 125 6 48 16 350 351 13 288 285 326 329 340 350 334 315 331 353 340 333 336 342 340 332 334 319 281 250 235 226 230 212 204 207 213 219
71 13 37 28 38 63 59 87 69 88 86 73 58 83 54 79 65 91 191 181 1 10 356 345 336 333 318 311 303 313 323 334 329 303 318 350 345 338 327 333 341 4 356 313 295 270 247 233 225 216 215 221 233 228
64 28 31 23 16 78 84 61 52 70 68 77 81 90 79 78 140 216 133 79 26 348 338 339 329 295 276 302 313 318 328 331 312 298 300 315 321 326 342 336 328 321 337 324 304 265 260 251 242 236 236 237 239 241
59 27 46 357 54 18 89 60 49 60 86 336 67 43 112 149 187 232 126 4 343 324 335 343 331 330 323 327 324 317 322 329 330 319 307 290 303 357 26 352 326 312 298 300 302 285 256 253 248 243 236 231 225 214
43 350 38 40 49 52 42 44 73 44 352 63 100 111 174 198 207 346 12 345 357 34 32 16 5 351 323 321 305 329 312 324 352 27 354 302 321 302 321 333 324 315 311 288 272 277 267 255 242 234 230 224 222 215
12 349 83 47 55 43 313 59 314 294 342 98 87 84 49 23 164 40 36 86 84 61 30 3 352 357 348 343 332 337 340 267 200 48 207 268 288 310 317 324 329 323 307 303 274 273 260 275 254 200 199 203 203 205
347 40 68 50 80 287 283 305 313 26 27 36 351 102 180 241 228 239 320 122 77 10 337 334 339 336 337 336 331 319 318 324 268 295 306 303 306 312 316 316 315 314 302 293 274 260 260 263 272 197 193 199 203 212
21 52 103 83 325 304 11 45 3 46 347 36 347 10 14 40 291 262 197 165 148 350 342 332 317 310 330 331 322 311 292 286 295 300 296 295 299 307 311 307 307 305 290 276 268 249 243 240 242 218 210 209 214 216
48 45 52 78 30 14 339 58 22 358 20 25 331 262 224 191 240 256 198 226 265 323 326 322 318 311 315 320 312 312 302 302 306 298 294 293 292 291 288 289 289 296 289 275 261 250 239 236 235 232 229 228 230 235